Regional Weather Roundup
Issued by NWS

Home | Current Version | Previous Version | Graphics & Text | Print | Product List | Glossary On
Versions: 1 2 3 4 5 6 7 8 9 10 11 12 13 14 15 16 17 18 19 20 21 22 23 24 25 26 27 28 29 30 31 32 33 34 35 36 37 38 39 40 41 42 43 44 45 46 47 48 49 50
000
ASUS43 KBIS 010902
RWRND

NORTH DAKOTA REGIONAL WEATHER ROUNDUP
NATIONAL WEATHER SERVICE BISMARCK ND
400 AM CDT SUN MAY 01 2016

NOTE: "FAIR" INDICATES FEW OR NO CLOUDS BELOW 12,000 FEET WITH NO
SIGNIFICANT WEATHER AND/OR OBSTRUCTIONS TO VISIBILITY.


NDZ001>003-009>011-017-011000-
NORTHWEST NORTH DAKOTA

CITY           SKY/WX    TMP DP  RH WIND       PRES   REMARKS
WILLISTON      CLEAR     35  28  75 N5        30.33R
MINOT          CLEAR     39  28  64 SW7       30.31S
MINOT AFB      CLEAR     29  24  83 NW8       30.31R
$$

NDZ018>021-031>035-040>046-011000-
SOUTHWEST NORTH DAKOTA

CITY           SKY/WX    TMP DP  RH WIND       PRES   REMARKS
BISMARCK       CLEAR     37  31  78 CALM      30.30R
DICKINSON      CLEAR     31  25  78 NW7       30.29R
GARRISON         N/A     32  27  81 NW3       30.31R
HETTINGER ARPT CLEAR     26  22  84 NW5       30.30S
$$

NDZ004>008-012>016-024-026-027-054-011000-
NORTHEAST NORTH DAKOTA

CITY           SKY/WX    TMP DP  RH WIND       PRES   REMARKS
GRAND FORKS    CLEAR     32  25  75 NW6       30.28R
GRND FRKS AFB  CLEAR     33  26  73 N6        30.28R
DEVILS LAKE    CLEAR     34  27  75 N7        30.30R
$$

NDZ022-023-025-028>030-036>039-047>053-011000-
SOUTHEAST NORTH DAKOTA

CITY           SKY/WX    TMP DP  RH WIND       PRES   REMARKS
FARGO          CLEAR     38  27  64 CALM      30.25R
JAMESTOWN      CLEAR     33  27  78 N7        30.25R
$$





USA.gov is the U.S. government's official web portal to all federal, state and local government web resources and services.